Location: Leeds
(37.2390°N, 113.3580°W)
Time: 09:09:04
(UTC-06:00)

ISS - All Passes

Search period start: 03 August 2015 00:00
Search period end: 13 August 2015 00:00
Orbit: 401 x 403 km, 51.6° (Epoch: 03 August)

Date Brightness Start Highest point End Pass type
(mag) Time Alt. Az. Time Alt. Az. Time Alt. Az.
03 Aug - 03:15:49 10° NNW 03:18:39 27° NNE 03:21:30 10° E night (unlit)
03 Aug - 04:52:12 10° WNW 04:55:04 28° SW 04:57:55 10° SSE night (unlit)
03 Aug - 19:53:59 10° S 19:56:32 22° SE 19:59:08 10° ENE daylight
03 Aug - 21:29:52 10° W 21:32:51 32° NNW 21:35:50 10° NNE visible
04 Aug - 02:23:12 10° NNW 02:25:26 17° NNE 02:27:42 10° ENE night (unlit)
04 Aug - 03:58:55 10° NW 04:02:08 63° SW 04:05:22 10° SE night (unlit)
04 Aug - 19:02:58 10° SE 19:03:40 11° SE 19:04:31 10° ESE daylight
04 Aug - 20:36:31 10° WSW 20:39:45 64° NW 20:42:59 10° NE daylight
04 Aug - 22:15:18 10° NW 22:16:44 12° NNW 22:18:07 10° N visible
05 Aug - 01:30:50 10° N 01:32:07 12° NNE 01:33:27 10° NE visible
05 Aug - 03:05:54 10° NW 03:09:07 59° NE 03:12:20 10° ESE night (unlit)
05 Aug - 04:44:00 10° WSW 04:45:13 11° SW 04:46:18 10° SSW night (unlit)
05 Aug - 19:43:32 10° SW 19:46:44 58° SE 19:49:56 10° ENE daylight
05 Aug - 21:21:05 10° WNW 21:23:25 18° NNW 21:25:42 10° NNE visible
06 Aug - 02:13:03 10° NNW 02:16:00 31° NNE 02:18:57 10° E night (unlit)
06 Aug - 03:49:39 10° WNW 03:52:20 23° SW 03:54:59 10° S night (unlit)
06 Aug - 18:51:00 10° SSW 18:53:46 26° SE 18:56:35 10° ENE daylight
06 Aug - 20:27:17 10° W 20:30:10 28° NNW 20:33:02 10° NNE daylight
07 Aug - 01:20:21 10° NNW 01:22:46 19° NNE 01:25:12 10° ENE visible
07 Aug - 02:56:14 10° WNW 02:59:23 50° SW 03:02:33 10° SSE night (unlit)
07 Aug - 17:59:20 10° SSE 18:00:52 13° SE 18:02:31 10° E daylight
07 Aug - 19:33:49 10° WSW 19:37:00 52° NW 19:40:12 10° NE daylight
07 Aug - 21:12:58 10° NW 21:14:04 11° NNW 21:15:05 10° N visible
08 Aug - 00:27:51 10° N 00:29:26 13° NNE 00:31:04 10° NE visible
08 Aug - 02:03:06 10° NW 02:06:22 73° NE 02:09:37 10° SE night (unlit)
08 Aug - 18:40:42 10° SW 18:43:55 73° SE 18:47:11 10° NE daylight
08 Aug - 20:18:34 10° WNW 20:20:41 16° NNW 20:22:47 10° NNE daylight
09 Aug - 01:10:12 10° NW 01:13:14 36° NE 01:16:17 10° ESE visible
09 Aug - 02:47:03 10° W 02:49:30 19° SW 02:51:54 10° S night (unlit)
09 Aug - 17:47:59 10° SSW 17:50:55 32° SE 17:53:54 10° ENE daylight
09 Aug - 19:24:38 10° W 19:27:23 24° NNW 19:30:08 10° NNE daylight
10 Aug - 00:17:25 10° NNW 00:20:00 21° NNE 00:22:36 10° E visible
10 Aug - 01:53:27 10° WNW 01:56:33 41° SW 01:59:36 10° SSE night (unlit)
10 Aug - 16:55:58 10° SSE 16:57:58 16° SE 17:00:04 10° E daylight
10 Aug - 18:31:02 10° WSW 18:34:10 43° NW 18:37:18 10° NE daylight
10 Aug - 20:10:44 10° NNW 20:11:18 10° NNW 20:11:48 10° N daylight
10 Aug - 23:24:49 10° NNW 23:26:39 14° NNE 23:28:32 10° ENE visible
11 Aug - 01:00:14 10° NW 01:03:30 89° NE 01:06:45 10° SE night (unlit)
11 Aug - 17:37:47 10° SW 17:41:02 89° SE 17:44:18 10° NE daylight
11 Aug - 19:15:58 10° WNW 19:17:53 14° NNW 19:19:45 10° NNE daylight
11 Aug - 22:32:51 10° N 22:33:13 10° NNE 22:33:39 10° NNE visible
12 Aug - 00:07:15 10° NW 00:10:22 42° NE 00:13:29 10° ESE visible
12 Aug - 01:44:25 10° W 01:46:34 16° SW 01:48:38 10° S night (unlit)
12 Aug - 16:44:56 10° SSW 16:47:59 39° SE 16:51:03 10° ENE daylight
12 Aug - 18:21:54 10° W 18:24:31 22° NNW 18:27:07 10° NNE daylight
12 Aug - 23:14:23 10° NNW 23:17:07 24° NNE 23:19:51 10° E visible
